www.pogodaiklimat.ru

Погода и климат >> Архив погоды >> Россия >> Ханты-Мансийский АО >> Няксимволь


АРХИВ ПОГОДЫ в Няксимволе

Время (UTC), дата Ветер
(напр.,м/с)
 
Видим.   Явления Облачность Т
(С)
Тd
(С)
f
(%)
Тe
(С)
Тes
(С)
Комфортность P
(гПа)
Po
(гПа)
Тmin
(С)
Tmax
(С)
R
(мм)
R24
(мм)
S
(см)
12 12.08 С 3 50 км слаб. дождь 10/0
[As trans]
+10.0 +9.3 95 +8 +9 1008.5 1002.3
15 12.08 С 3 50 км 10/0
[As trans]
+9.9 +8.9 93 +8 +8 1010.6 1004.4 +11.7 2
18 12.08 С 2 20 км 10/0
[As trans]
+9.4 +8.5 94 +8 +8 1011.9 1005.7
21 12.08 С 2 20 км 10/0
[As trans]
+9.4 +8.4 93 +8 +8 1012.7 1006.5
00 13.08 С 2 20 км 10/0
[As trans]
+9.2 +8.6 96 +7 +7 1014.1 1007.9
03 13.08 С 4 50 км 10/0
[As op]
+9.3 +8.1 92 +6 +7 1014.0 1007.9 +9.1
06 13.08 С 4 50 км 10/0
[As op]
+9.6 +8.0 90 +7 +8 1015.3 1009.1
09 13.08 С 5 50 км 10/6 1000 м
[Sc Ac As]
+11.4 +9.1 86 +9 +9 1015.5 1009.4
12 13.08 СВ 3 50 км 10/10 1000 м
[Sc]
+11.9 +9.9 88 +10 +10 1015.8 1009.7
15 13.08 С 2 20 км слаб. морось 10/10 300 м
[St]
+10.8 +10.5 98 +9 +9 1016.3 1010.2 +11.9 0.0
18 13.08 С 1 20 км {морось} 10/10 300 м
[St]
+11.1 +10.5 96 +11 +11 1016.1 1010.0
21 13.08 СЗ 2 20 км 10/10 300 м
[St]
+10.6 +10.4 99 +9 +9 1015.6 1009.4
00 14.08 СЗ 1 20 км слаб. морось 10/10 300 м
[St]
+10.5 +10.5 100 +10 +10 1015.1 1008.9
03 14.08 СЗ 1 20 км слаб. морось 10/10 300 м
[St]
+11.2 +11.2 100 +11 +11 1014.9 1008.7 +10.5 0.3
06 14.08 СЗ 1 50 км слаб. морось 10/10 300 м
[St]
+13.1 +12.8 98 +13 +13 1014.7 1008.6
09 14.08 З 1 50 км 10/10 1000 м
[Sc]
+15.5 +13.4 87 +16 +16 1014.0 1008.0
12 14.08 штиль 0 50 км 10/10 1000 м
[Sc]
+15.7 +14.0 90 +15 +15 1013.7 1007.7
15 14.08 СЗ 1 50 км 10/10 1000 м
[Sc]
+14.8 +14.0 95 +15 +15 1013.9 1007.8 +16.0 0.0
18 14.08 штиль 0 20 км 10/10 1000 м
[Sc]
+14.2 +13.8 97 +14 +14 1013.6 1007.5
21 14.08 СЗ 1 20 км 10/10 1000 м
[Sc]
+13.4 +13.2 99 +13 +13 1013.1 1007.0
00 15.08 С 1 20 км 10/10 1000 м
[Sc]
+13.4 +13.4 100 +13 +13 1013.4 1007.3
03 15.08 штиль 0 50 км 10/10 1000 м
[Sc]
+14.2 +14.2 100 +14 +14 1013.8 1007.7 +13.3
06 15.08 Ю 1 50 км 10/10 1000 м
[Sc]
+15.8 +15.5 98 +16 +16 1013.7 1007.7
09 15.08 ЮВ 1 50 км 8/8 1000 м
[Sc]
+19.6 +15.9 79 +23 +25 комфорт 1013.6 1007.6
12 15.08 Ю 1 50 км 8/5 1000 м
[Cu med, cong Ci fib]
+21.1 +15.2 69 +24 +26 комфорт 1013.2 1007.3
15 15.08 штиль 0 50 км 9/3 1000 м
[Sc Cs]
+18.7 +17.1 90 +20 +20 1013.0 1007.0 +21.5
18 15.08 Ю 1 20 км 10/0
[As op]
+15.6 +15.2 97 +16 +16 1013.2 1007.2
21 15.08 Ю 1 20 км 10/0
[As op]
+14.0 +13.7 98 +14 +14 1012.9 1006.9
00 16.08 штиль 0 50 км 8/0
[As op]
+12.6 +12.4 99 +12 +12 1012.2 1006.1
03 16.08 Ю 2 50 км 5/0
[As trans Ci fib]
+15.7 +13.9 89 +16 +17 1010.9 1004.9 +12.6
06 16.08 Ю 3 50 км 10/8 1000 м
[Sc Ci]
+19.5 +15.1 76 +22 +23 комфорт 1009.9 1004.0
09 16.08 ЮЗ 4 50 км 10/10 1000 м
[Sc]
+20.2 +15.7 75 +23 +23 комфорт 1010.2 1004.2
12 16.08 З 2 50 км 8/3 1000 м
[Sc Ci]
+22.8 +14.3 59 +26 +29 жарко 1010.1 1004.2
15 16.08 ЮЗ 1 50 км 10/10 1000 м
[Sc]
+19.8 +16.3 80 +23 +23 комфорт 1010.8 1004.8 +23.4
18 16.08 З 2 20 км 10/10 1000 м
[Sc]
+18.1 +10.1 60 +19 +19 1011.9 1005.9
21 16.08 З 2 20 км 9/0
[Ac As Ci fib]
+13.5 +10.3 81 +13 +13 1012.9 1006.8
00 17.08 В 1 50 км 10/0
[Cs]
+9.1 +8.4 95 +8 +8 1014.4 1008.2
03 17.08 Ю 1 50 км 5/0
[Ci]
+13.9 +10.6 80 +14 +17 1015.2 1009.1 +8.3
06 17.08 З 4 50 км 6/3 1000 м
[Cu hum Ci fib]
+19.2 +9.9 55 +20 +23 1015.7 1009.7
09 17.08 СЗ 3 50 км 8/4 1000 м
[Cu hum Ci]
+20.5 +10.7 53 +23 +26 комфорт 1016.2 1010.2
12 17.08 СЗ 2 50 км 8/8 1000 м
[Sc diur, vesp]
+20.7 +10.2 51 +23 +24 комфорт 1016.9 1010.9
15 17.08 СЗ 1 50 км 5/5 1000 м
[Sc diur, vesp]
+18.5 +11.0 62 +20 +20 1017.5 1011.5 +21.6
18 17.08 штиль 0 20 км 3/0
[Ci fib]
+10.5 +10.0 97 +10 +10 1018.7 1012.5
21 17.08 ЮЗ 1 20 км 4/0
[Ci sp]
+8.3 +8.1 99 +7 +7 1019.6 1013.3
00 18.08 штиль 0 50 км 3/0
[Ci fib]
+8.1 +7.9 99 +7 +7 1020.6 1014.3
03 18.08 З 1 50 км ясно +12.0 +10.6 91 +12 +14 1021.6 1015.4 +7.2
06 18.08 СЗ 3 50 км ясно +18.8 +11.7 63 +20 +26 1022.0 1015.9
09 18.08 В 2 50 км 8/8 1000 м
[Cu med, cong]
+20.5 +11.4 56 +23 +25 комфорт 1022.7 1016.7
12 18.08 СВ 3 50 км 4/3 1000 м
[Cu med, cong Ac trans]
+21.1 +10.3 50 +23 +25 комфорт 1023.4 1017.4
15 18.08 штиль 0 50 км 3/0
[Ac trans]
+18.5 +12.0 66 +19 +19 1024.4 1018.3 +21.8
18 18.08 СВ 1 20 км ясно +11.1 +10.5 96 +11 +11 1026.0 1019.8
21 18.08 СВ 1 20 км ясно +8.2 +7.9 98 +7 +7 1027.2 1020.9
00 19.08 СВ 2 50 км 6/0
[Ac As]
+6.4 +6.2 99 +4 +4 1028.6 1022.3
03 19.08 штиль 0 50 км ясно +11.6 +9.4 86 +11 +14 1029.0 1022.8 +6.2
06 19.08 ЮЗ 2 50 км ясно +19.5 +9.5 52 +21 +28 комфорт 1028.7 1022.6

 

Местоположение метеостанции Няксимволь (Ханты-Мансийский АО, Россия): широта 62.43 долгота 60.87 высота над уровнем моря 51 м.

В архиве по умолчанию представлена погода в Няксимволе за последнюю неделю. Архивные данные за месяц целиком и за предыдущие месяцы, начиная с января 2011 года, Вы можете получить, выбрав интересующий диапазон дат из раскрывающегося списка и нажав кнопку "Ввод!".


*Определитесь, кто Вы:
робот инопланетянин человек

Внимание! Время в таблицах - всемирное. Для получения местного времени необходимо прибавить поправку, которая равна 5 ч.

Смотрите также архив погоды в соседних городах и на ближайших метеорологических станциях:

Погода в Приполярном (Ханты-Мансийский АО, Россия) (101 км)
Погода в Агирише (Ханты-Мансийский АО, Россия) (125 км)
Погода в Бурмантово (Свердловская область, Россия) (130 км)
Погода в Сосьве (Ханты-Мансийский АО, Россия) (149 км)
Погода в Атымье (Свердловская область, Россия) (171 км)
Погода в Югорске (Ханты-Мансийский АО, Россия) (182 км)
Погода в Ивделе (Свердловская область, Россия) (196 км)
Погода в Игриме (Ханты-Мансийский АО, Россия) (201 км)
Погода в Саранпауле (Ханты-Мансийский АО, Россия) (206 км)
Погода в Вонъегане (Ханты-Мансийский АО, Россия) (216 км)

Пояснения к столбцам:

Ветер - указаны скорость ветра в м/с - средняя за 10 мин, порывы в срок и между сроками (в фигурных скобках) и направление, откуда дует ветер: С - северный, СВ - северо-восточный, В - восточный, ЮВ - юго-восточный, Ю - южный, ЮЗ - юго-западный, З - западный, СЗ - северо-западный.
Видимость - горизонтальная дальность видимости в метрах или километрах. При видимости от 1 до 10 км при отсутствии осадков обычно наблюдается дымка, при ухудшении видимости до 1 км и менее - туман. В сухую погоду видимость может ухудшаться дымом, пылью или мглою.
Явления - указаны атмосферные явления, наблюдавшиеся в срок или в последний час перед сроком; фигурными скобками обозначены явления, наблюдавшиеся между сроками (за 1-3 часа до срока); квадратными скобками обозначены град или гололедные отложения с указанием их диаметра в мм.
Облачность - указаны через наклонную черту общая и нижняя облачность в баллах и высота нижней границы облаков в метрах; квадратными скобками обозначены формы облаков: Ci - перистые, Cs - перисто-слоистые, Cc - перисто-кучевые, Ac - высококучевые, As - высокослоистые, Sc - слоисто-кучевые, Ns - слоисто-дождевые, Cu - кучевые, Cb - кучево-дождевые. Подробнее классификацию облаков см. в Атласе облаков (PDF).
T - Температура воздуха - температура, измеренная на высоте 2 м над землей.
Td - Температура точки росы - температура, при понижении до которой содержащийся в воздухе водяной пар достигнет насыщения.
f - Относительная влажность воздуха - влажноcть воздуха, измеренная на высоте 2 м над землей.
Te - Эффективная температура - температура, которую ощущает одетый по сезону человек в тени. Характеристика душности погоды. При расчете учитывается влияние влажности воздуха и скорости ветра на теплоощущения человека.
Tes - Эффективная температура на солнце - температура, которую ощущает человек, с поправкой на солнечный нагрев. Характеристика знойности погоды. Зависит от высоты солнца над горизонтом, облачности и скорости ветра. Ночью, в пасмурную погоду, а также при ветре 12 м/с и более поправка равна нулю.
P - Атмосферное давление - приведенное к уровню моря атмосферное давление.
Po - Атмосферное давление - измеренное на уровне метеостанции атмосферное давление.
Tmin - Минимальная температура - минимум температуры воздуха на высоте 2 м над землей.
Tmax - Максимальная температура - максимум температуры воздуха на высоте 2 м над землей.
R - Количество осадков - Количество выпавших осадков за период времени, мм. При наведении курсора мыши на число - период времени, за который выпало указанное количество осадков.
R24 - Количество осадков - Количество выпавших осадков за 24 часа, мм.
S - Снежный покров - Высота снежного покрова, см. При наведении курсора мыши на число - состояние снежного покрова и степень покрытия местности в баллах.